PBO Station Position Time Series. Reference Frame : NAM14
Format Version,1.1.0
4-character ID,OLO3
Station name,OLO3_OLO_TZA2016
Begin Date, 2016-06-23
End Date, 2019-03-05
Release Date, 2019-09-05
Reference position, -2.7539841219 North Latitude, 35.8713945444 East Longitude, 1483.05504 meters elevation,
Date, North (mm), East (mm), Vertical (mm), North Std. Deviation (mm), East Std. Deviation (mm),              Vertical Std. Deviation (mm), Quality,
2016-06-23,0.00, 0.00, 0.00, 2.53, 2.54, 8.24, repro,
2016-06-24,1.90, -3.35, -1.03, 2.62, 2.68, 8.38, repro,
2016-06-25,6.34, 2.02, -9.53, 2.48, 2.50, 8.12, repro,
2016-06-26,3.29, -2.17, -1.84, 2.47, 2.50, 8.08, repro,
2016-06-27,1.17, -2.64, -1.96, 2.49, 2.51, 8.12, repro,
2016-06-28,1.89, -1.58, -0.22, 2.49, 2.51, 8.16, repro,
2016-06-29,-2.62, -3.15, -7.61, 2.48, 2.49, 8.08, repro,
2016-06-30,4.12, -1.54, -1.18, 2.53, 2.58, 8.46, repro,
2016-07-01,1.55, 1.22, 2.78, 2.50, 2.51, 8.16, repro,
2016-07-02,-2.00, -1.65, -1.15, 2.57, 2.59, 8.16, repro,
2016-07-03,3.31, -0.46, 5.38, 2.57, 2.58, 8.19, repro,
2016-07-04,2.87, 3.18, 3.19, 2.56, 2.58, 8.18, repro,
2016-07-05,1.81, -2.88, -3.06, 2.51, 2.53, 8.10, repro,
2016-07-06,3.84, 2.70, -1.06, 2.53, 2.54, 8.11, repro,
2016-07-07,1.25, -5.62, 0.25, 2.52, 2.53, 8.13, repro,
2016-07-08,-0.29, -3.24, -4.03, 2.62, 2.62, 8.28, repro,
2016-07-09,-0.76, -4.44, -0.79, 2.56, 2.57, 8.03, repro,
2016-07-10,1.11, 2.70, -7.07, 2.56, 2.56, 8.06, repro,
2016-07-11,-1.08, -1.14, -5.88, 2.54, 2.53, 8.23, repro,
2016-07-12,0.24, -2.07, -0.63, 2.54, 2.55, 8.12, repro,
2016-07-13,1.42, 0.72, -1.23, 2.54, 2.55, 8.11, repro,
2016-07-14,2.10, 2.15, 3.15, 2.53, 2.54, 8.19, repro,
2016-07-15,2.56, 7.11, -2.86, 2.56, 2.56, 8.14, repro,
2016-07-16,7.89, 9.98, 1.69, 2.55, 2.61, 8.33, repro,
2016-07-17,5.39, 3.06, -8.55, 2.49, 2.50, 8.09, repro,
2016-07-18,1.58, 5.92, -6.44, 2.57, 2.57, 8.24, repro,
2016-07-19,1.97, 4.03, -6.17, 2.55, 2.55, 8.10, repro,
2016-07-20,1.88, -2.71, -11.72, 2.56, 2.60, 8.24, repro,
2016-07-21,5.90, 4.46, 2.82, 2.53, 2.53, 8.19, repro,
2016-07-22,6.46, 0.36, -6.20, 2.61, 2.62, 8.36, repro,
2016-07-23,5.49, 5.24, -2.80, 2.53, 2.54, 8.08, repro,
2016-07-24,0.31, 2.73, 1.86, 2.52, 2.52, 8.05, repro,
2016-07-25,6.27, 0.61, -0.82, 2.54, 2.54, 8.11, repro,
2016-07-26,1.43, -3.26, 1.61, 2.56, 2.53, 8.44, repro,
2016-07-27,4.51, 0.28, -3.66, 2.58, 2.54, 8.52, repro,
2016-07-28,5.63, 6.61, 9.66, 2.54, 2.54, 8.15, repro,
2016-07-29,3.73, 1.58, -0.32, 2.58, 2.58, 8.38, repro,
2016-07-30,-4.01, 0.26, 0.91, 2.57, 2.56, 8.13, repro,
2016-07-31,3.42, 2.09, 9.80, 2.54, 2.53, 8.07, repro,
2016-08-01,4.45, 4.92, 1.33, 2.73, 2.70, 8.07, repro,
2016-08-02,8.57, 0.03, 7.66, 2.57, 2.62, 8.34, repro,
2016-08-03,-0.42, -1.90, 8.91, 2.56, 2.56, 8.10, repro,
2016-08-04,-0.79, -7.39, 2.70, 2.56, 2.55, 8.13, repro,
2016-08-05,2.89, -3.91, 4.35, 2.55, 2.55, 8.15, repro,
2016-08-06,3.37, -6.72, 3.14, 2.53, 2.54, 7.99, repro,
2016-08-07,2.50, 1.50, 5.72, 2.52, 2.52, 8.09, repro,
2016-08-08,2.04, 0.85, -2.23, 2.56, 2.57, 8.22, repro,
2016-08-09,2.48, 2.36, -2.45, 2.53, 2.53, 8.22, repro,
2016-08-10,6.28, 2.51, 0.80, 2.55, 2.55, 8.13, repro,
2016-08-11,2.47, -5.88, 3.66, 2.50, 2.49, 8.04, repro,
2016-08-12,1.89, 3.48, 6.23, 2.53, 2.53, 8.03, repro,
2016-08-13,7.59, 3.89, 11.87, 2.54, 2.53, 8.13, repro,
2016-08-14,3.13, 2.29, 12.92, 2.58, 2.57, 8.14, repro,
2016-08-15,13.84, 5.41, 9.75, 2.53, 2.54, 8.34, repro,
2016-08-16,6.38, 12.24, 8.59, 2.57, 2.60, 8.43, repro,
2016-08-17,-2.94, -0.66, 1.06, 2.53, 2.52, 8.18, repro,
2016-08-18,4.48, -0.26, 4.63, 2.52, 2.53, 8.19, repro,
2016-08-19,-0.09, 1.04, 9.68, 2.57, 2.62, 8.20, repro,
2016-08-20,7.42, -2.90, 8.01, 2.51, 2.50, 8.22, repro,
2016-08-21,2.58, -6.84, -0.42, 2.53, 2.52, 8.06, repro,
2016-08-22,3.85, -4.71, 1.67, 2.50, 2.51, 8.05, repro,
2016-08-23,4.25, 1.36, 13.31, 2.54, 2.52, 8.32, repro,
2016-08-24,3.63, -3.56, -8.64, 2.51, 2.52, 8.19, repro,
2016-08-25,-2.49, -4.21, -8.34, 2.49, 2.50, 8.06, repro,
2016-08-26,4.28, 0.97, 1.63, 2.58, 2.55, 8.37, repro,
2016-08-27,8.96, 2.59, 9.56, 2.54, 2.52, 8.15, repro,
2016-08-28,5.94, 0.69, 6.03, 2.54, 2.53, 8.28, repro,
2016-08-29,3.74, 0.88, 2.40, 2.50, 2.50, 8.12, repro,
2016-08-30,0.73, 2.65, 0.64, 2.53, 2.54, 8.08, repro,
2016-08-31,-0.31, -3.56, -4.09, 2.57, 2.58, 8.15, repro,
2016-09-01,6.68, -3.41, 1.25, 2.58, 2.55, 8.07, repro,
2016-09-02,-1.24, -2.55, 5.32, 2.63, 2.60, 8.22, repro,
2016-09-03,5.85, 8.84, 7.66, 2.60, 2.58, 8.10, repro,
2016-09-04,5.36, 8.61, 3.66, 2.55, 2.56, 8.08, repro,
2016-09-05,5.07, 5.45, -0.34, 2.57, 2.58, 8.04, repro,
2016-09-06,4.84, 4.26, 3.46, 2.55, 2.56, 7.95, repro,
2016-09-07,8.13, -4.23, -2.34, 2.67, 2.65, 8.51, repro,
2016-09-08,10.66, 4.82, 13.44, 2.72, 2.67, 8.72, repro,
2016-09-09,8.59, 12.85, 0.94, 2.58, 2.54, 8.30, repro,
2016-09-10,6.01, 11.71, 6.89, 2.54, 2.53, 8.02, repro,
2016-09-11,5.26, 13.54, -0.04, 2.54, 2.53, 7.98, repro,
2016-09-12,5.58, 4.64, -1.12, 2.55, 2.56, 8.09, repro,
2016-09-13,10.87, 8.23, 6.66, 2.52, 2.52, 8.09, repro,
2016-09-14,5.42, 11.77, -3.17, 2.61, 2.61, 8.39, repro,
2016-09-15,7.39, 9.91, 10.06, 2.62, 2.60, 8.45, repro,
2016-09-16,7.69, 6.16, 0.31, 2.57, 2.57, 8.33, repro,
2016-09-17,7.86, 7.53, -2.45, 2.60, 2.58, 8.25, repro,
2016-09-18,8.85, 6.38, 7.01, 3.65, 3.65, 14.48, repro,
2016-10-14,47.84, -261.93, -184.21, 280.77, 1620.26, 919.70, repro,
2016-10-15,-2.52, 10.22, -4.11, 3.28, 3.58, 12.19, repro,
2016-10-16,7.94, 7.42, 10.68, 3.02, 3.05, 10.71, repro,
2016-10-17,4.59, 10.98, 20.08, 2.93, 2.97, 10.32, repro,
2016-10-18,5.01, 12.77, 7.04, 2.75, 2.76, 9.35, repro,
2016-10-19,-3.40, 3.43, -6.11, 2.61, 2.64, 8.35, repro,
2016-10-20,13.29, 16.70, -2.60, 2.52, 2.53, 8.14, repro,
2016-10-21,7.86, 12.44, 5.10, 2.70, 2.76, 9.71, repro,
2016-10-22,0.55, 3.64, -5.92, 2.54, 2.58, 8.59, repro,
2016-10-23,1.87, 15.67, 4.82, 2.62, 2.62, 8.08, repro,
2016-10-24,6.81, 10.43, -1.55, 2.61, 2.63, 8.53, repro,
2016-10-25,11.36, 10.46, 12.61, 2.65, 2.67, 8.83, repro,
2016-10-26,6.48, 6.16, 17.86, 2.65, 2.67, 8.84, repro,
2016-10-27,3.36, 13.61, 0.81, 2.57, 2.59, 8.50, repro,
2016-10-28,7.41, 11.84, 7.26, 2.60, 2.62, 8.39, repro,
2016-10-29,-4.30, 7.86, 5.08, 2.58, 2.59, 8.34, repro,
2016-10-30,-0.47, 10.28, 10.17, 2.56, 2.61, 8.39, repro,
2016-10-31,4.38, 5.34, 12.56, 2.68, 2.73, 8.72, repro,
2016-11-01,7.83, 2.33, -1.74, 3.72, 3.78, 14.76, repro,
2016-11-02,-4.12, 3.56, 11.43, 2.90, 2.94, 10.29, repro,
2016-11-03,12.45, 9.09, 17.33, 2.64, 2.65, 8.86, repro,
2016-11-04,12.66, 11.31, 33.12, 2.90, 2.92, 10.47, repro,
2016-11-05,8.22, 14.46, 14.44, 2.93, 2.92, 10.64, repro,
2016-11-06,6.53, 18.78, 17.75, 2.92, 2.91, 10.38, repro,
2016-11-07,4.19, 13.06, 16.55, 2.65, 2.66, 9.31, repro,
2016-11-08,7.32, 10.35, 20.59, 2.56, 2.55, 8.37, repro,
2016-11-09,-0.42, 3.64, 7.35, 2.56, 2.56, 8.41, repro,
2016-11-10,12.85, 8.70, 26.20, 2.89, 3.00, 10.83, repro,
2016-11-11,13.26, 18.69, 14.79, 3.07, 3.07, 11.72, repro,
2016-11-12,18.41, 14.78, 5.14, 3.17, 3.30, 12.53, repro,
2016-11-13,13.80, 13.67, 16.00, 3.24, 3.37, 12.88, repro,
2016-11-14,19.65, 22.36, -3.20, 3.73, 3.72, 16.09, repro,
2016-11-15,9.44, 21.78, 1.94, 4.03, 4.00, 17.11, repro,
2016-11-16,3.76, 24.09, -26.59, 3.55, 3.72, 15.17, repro,
2016-11-18,2.96, 11.76, -1.60, 3.43, 3.51, 13.50, repro,
2016-11-19,14.51, 24.43, 86.64, 11.98, 11.88, 71.98, repro,
2016-11-20,3.74, 320.13, 7.71, 426.23, 766.58, 1855.12, repro,
2016-11-21,-5.33, 10.11, 6.32, 4.01, 3.95, 17.87, repro,
2016-11-22,8.90, 15.10, -4.90, 2.96, 2.98, 11.33, repro,
2016-11-23,7.17, 9.18, 21.15, 2.98, 2.99, 10.93, repro,
2016-11-24,5.06, 18.78, 14.66, 3.70, 3.57, 15.68, repro,
2016-11-25,9.15, 10.56, 3.01, 3.82, 3.78, 15.95, repro,
2016-11-26,9.96, 8.77, -17.35, 3.68, 4.03, 15.63, repro,
2016-11-27,12.24, 7.14, 18.31, 4.50, 4.28, 20.34, repro,
2016-11-28,0.18, 18.76, -5.89, 3.53, 3.59, 14.92, repro,
2016-11-29,7.44, 6.46, 21.52, 3.66, 3.86, 16.40, repro,
2016-11-30,4.48, 1.98, 5.83, 3.45, 3.47, 14.24, repro,
2016-12-01,3.04, 10.93, -1.86, 3.38, 3.41, 13.57, repro,
2016-12-02,6.17, 4.49, 5.85, 3.53, 3.57, 14.43, repro,
2016-12-03,9.77, 8.39, 27.19, 4.27, 4.14, 17.65, repro,
2016-12-04,12.69, 10.77, -1.76, 3.85, 3.92, 16.68, repro,
2016-12-05,0.13, 1.61, -10.19, 4.00, 4.14, 17.43, repro,
2016-12-06,6.04, 3.55, 5.81, 3.11, 3.07, 11.60, repro,
2016-12-07,7.75, 1.62, 4.51, 3.08, 3.05, 11.53, repro,
2016-12-08,2.60, 3.34, 14.94, 3.24, 3.34, 12.84, repro,
2016-12-09,7.73, 7.71, 10.00, 3.20, 3.16, 11.88, repro,
2016-12-10,7.16, 7.13, 11.22, 3.18, 3.17, 12.27, repro,
2016-12-11,3.10, 14.19, 4.29, 3.12, 3.19, 11.93, repro,
2016-12-12,-10.18, 17.28, -109.51, 6.26, 5.63, 24.55, repro,
2016-12-13,7.72, 4.06, 6.59, 3.10, 3.14, 11.65, repro,
2016-12-14,11.64, 17.33, 14.20, 3.60, 3.53, 14.06, repro,
2016-12-15,7.38, 8.54, 15.29, 2.88, 2.87, 9.89, repro,
2016-12-16,-2.58, 4.54, 17.17, 2.95, 2.93, 10.31, repro,
2016-12-17,0.82, 13.41, -0.18, 2.96, 2.97, 10.63, repro,
2016-12-18,1.72, 6.99, -3.45, 2.95, 2.93, 10.80, repro,
2016-12-19,8.26, 14.37, -1.80, 2.87, 2.88, 9.77, repro,
2016-12-20,7.06, 8.12, 15.62, 2.82, 2.83, 9.65, repro,
2016-12-21,4.02, 6.64, 12.60, 2.89, 2.88, 10.33, repro,
2016-12-22,10.38, 16.82, 2.13, 3.21, 3.28, 12.58, repro,
2016-12-23,9.39, 15.35, 6.89, 3.16, 3.27, 12.51, repro,
2016-12-25,9.11, 17.10, 4.47, 2.99, 2.99, 10.97, repro,
2016-12-26,10.90, 19.50, -8.88, 4.26, 4.29, 20.35, repro,
2016-12-27,10.43, 10.64, 19.45, 2.92, 2.89, 10.48, repro,
2016-12-28,6.96, 7.97, 19.84, 6.01, 6.21, 28.29, repro,
2017-01-20,5.16, 13.48, 1.34, 3.29, 3.34, 13.08, repro,
2017-01-21,0.86, 6.41, 3.40, 2.58, 2.59, 8.48, repro,
2017-01-22,4.10, 12.02, 2.06, 2.56, 2.58, 8.44, repro,
2017-01-23,3.87, 5.44, 7.12, 2.54, 2.57, 8.43, repro,
2017-01-24,6.11, 1.24, 20.03, 2.63, 2.64, 8.43, repro,
2017-01-25,2.01, 10.86, 7.02, 2.56, 2.57, 8.36, repro,
2017-01-26,-0.47, -0.65, 8.44, 2.63, 2.64, 8.39, repro,
2017-01-27,-0.75, 5.61, 5.88, 2.61, 2.62, 8.41, repro,
2017-01-28,4.09, 7.10, 18.92, 2.69, 2.76, 8.95, repro,
2017-01-29,0.58, -0.08, 6.39, 2.63, 2.64, 8.56, repro,
2017-01-30,-7.25, -2.71, 4.55, 2.60, 2.61, 8.53, repro,
2017-01-31,-6.96, 2.99, 0.85, 2.57, 2.58, 8.39, repro,
2017-02-01,-6.27, -5.26, 1.63, 2.65, 2.63, 8.63, repro,
2017-02-02,-1.37, 5.18, -1.82, 2.63, 2.62, 8.43, repro,
2017-02-03,0.96, 8.35, -1.45, 2.65, 2.65, 8.40, repro,
2017-02-04,3.21, 5.99, -4.32, 2.73, 2.78, 9.35, repro,
2017-02-05,0.93, 10.02, -5.11, 2.88, 2.90, 9.93, repro,
2017-02-06,7.50, 19.61, -0.29, 2.72, 2.77, 8.84, repro,
2017-02-07,8.77, 13.70, 9.35, 2.69, 2.71, 9.24, repro,
2017-02-08,5.37, 10.99, 2.44, 2.75, 2.76, 9.27, repro,
2017-02-09,6.95, 17.72, -6.02, 2.86, 2.80, 9.85, repro,
2017-02-10,6.54, 13.75, 5.55, 2.78, 2.79, 9.36, repro,
2017-02-11,3.20, 1.01, 3.84, 2.71, 2.71, 8.79, repro,
2017-02-12,5.24, 5.56, 11.20, 2.71, 2.70, 9.40, repro,
2017-02-13,2.99, 4.71, 11.40, 2.82, 2.81, 9.87, repro,
2017-02-14,-0.03, 3.74, 5.17, 2.69, 2.69, 9.15, repro,
2017-02-15,8.49, 9.11, 15.85, 2.71, 2.70, 9.11, repro,
2017-02-16,5.76, 11.19, -2.57, 2.71, 2.71, 9.05, repro,
2017-02-17,2.51, 2.76, 11.82, 2.67, 2.69, 9.06, repro,
2017-02-18,5.68, 7.04, 5.43, 2.68, 2.70, 9.54, repro,
2017-02-19,7.03, 5.77, 10.89, 2.68, 2.65, 8.96, repro,
2017-02-20,7.94, 13.79, 0.29, 2.65, 2.65, 8.89, repro,
2017-02-21,6.84, 4.80, 4.48, 2.65, 2.66, 8.90, repro,
2017-02-22,5.71, 3.22, 7.33, 2.75, 2.73, 9.83, repro,
2017-02-23,0.42, -1.79, 8.79, 2.65, 2.63, 8.88, repro,
2017-02-24,6.00, 3.22, 11.49, 2.63, 2.60, 8.76, repro,
2017-02-25,6.29, 8.24, 8.21, 2.73, 2.81, 9.42, repro,
2017-02-26,4.67, 7.88, 9.61, 2.67, 2.60, 9.54, repro,
2017-02-27,0.75, 3.34, 5.32, 2.89, 2.94, 10.28, repro,
2017-02-28,3.01, 1.48, -8.30, 2.64, 2.60, 8.87, repro,
2017-03-01,1.98, 7.17, -4.44, 2.71, 2.68, 8.83, repro,
2017-03-02,3.39, 10.29, 0.73, 2.69, 2.64, 8.90, repro,
2017-03-03,0.93, 4.51, 0.97, 2.72, 2.68, 8.91, repro,
2017-03-04,3.29, 8.25, 2.93, 2.72, 2.68, 9.03, repro,
2017-03-05,15.88, 10.04, 6.68, 2.77, 2.72, 9.70, repro,
2017-03-06,0.75, 0.33, 0.20, 2.83, 2.83, 9.60, repro,
2017-03-07,6.63, -4.12, 7.39, 2.62, 2.63, 8.75, repro,
2017-03-08,6.76, 0.67, 10.41, 2.62, 2.67, 8.91, repro,
2017-03-09,-0.05, -2.56, 10.99, 2.60, 2.60, 8.38, repro,
2017-03-10,2.34, -0.63, 11.25, 2.67, 2.67, 8.73, repro,
2017-03-11,3.74, 1.80, -2.12, 2.61, 2.65, 8.50, repro,
2017-03-12,4.96, 11.33, 7.21, 2.97, 2.91, 8.45, repro,
2017-03-13,7.00, 2.93, 11.84, 2.61, 2.63, 8.83, repro,
2017-03-14,8.65, 1.58, 20.61, 2.70, 2.75, 8.96, repro,
2017-03-15,3.88, 6.16, -2.93, 2.60, 2.61, 8.38, repro,
2017-03-16,4.98, 2.46, 13.77, 2.70, 2.70, 8.71, repro,
2017-03-17,8.08, -0.77, 3.76, 2.55, 2.56, 8.47, repro,
2017-03-18,7.87, 6.15, 8.46, 2.58, 2.60, 8.52, repro,
2017-03-19,8.43, 5.45, -9.28, 2.58, 2.61, 8.78, repro,
2017-03-20,2.98, -0.03, -1.96, 2.54, 2.57, 8.64, repro,
2017-03-21,1.46, 4.22, -10.47, 2.55, 2.59, 8.79, repro,
2017-03-22,4.54, -0.27, -1.34, 2.65, 2.76, 9.70, repro,
2017-03-23,4.52, 10.57, -17.07, 2.70, 2.81, 9.71, repro,
2017-03-24,3.87, -1.13, -2.57, 2.70, 2.73, 9.54, repro,
2017-03-25,4.98, 1.13, 6.93, 2.56, 2.65, 8.91, repro,
2017-03-26,5.18, -6.09, 13.85, 2.60, 2.66, 9.12, repro,
2017-03-27,2.64, -6.39, 5.67, 2.63, 2.73, 9.14, repro,
2017-03-28,2.14, -11.01, 0.18, 2.59, 2.62, 8.80, repro,
2017-03-29,5.55, 0.66, -0.63, 2.59, 2.68, 9.14, repro,
2017-03-30,1.35, 1.52, -16.37, 2.61, 2.64, 8.89, repro,
2017-03-31,6.73, -5.28, 13.40, 2.56, 2.59, 8.64, repro,
2017-04-01,5.28, 11.80, -3.46, 2.57, 2.60, 8.74, repro,
2017-04-02,2.27, 1.20, 10.77, 2.59, 2.61, 9.31, repro,
2017-04-03,1.79, 6.52, -5.46, 2.55, 2.64, 9.11, repro,
2017-04-04,0.65, -0.61, -11.37, 2.57, 2.62, 9.02, repro,
2017-04-05,5.70, -1.43, 9.97, 2.55, 2.56, 8.99, repro,
2017-04-06,1.05, 2.49, -3.04, 2.61, 2.64, 8.57, repro,
2017-04-07,2.98, 1.92, -3.60, 2.58, 2.66, 9.08, repro,
2017-04-08,6.99, 9.03, 1.92, 2.56, 2.57, 8.81, repro,
2017-04-09,0.92, 5.17, -13.61, 2.52, 2.58, 8.53, repro,
2017-04-10,4.30, 2.03, 10.18, 2.48, 2.54, 8.43, repro,
2017-04-11,3.09, -0.75, -6.71, 2.53, 2.61, 8.77, repro,
2017-04-12,-2.45, 2.90, -11.55, 2.54, 2.57, 8.59, repro,
2017-04-13,-3.28, -3.24, -3.20, 2.56, 2.59, 8.70, repro,
2017-04-14,0.58, 2.63, -23.82, 2.54, 2.56, 8.47, repro,
2017-04-15,0.62, -6.93, 4.77, 2.53, 2.57, 8.48, repro,
2017-04-16,4.95, 3.64, 15.26, 2.51, 2.56, 8.51, repro,
2017-04-17,4.92, -0.05, 13.97, 2.52, 2.57, 8.49, repro,
2017-04-18,1.05, -1.52, 7.83, 2.61, 2.71, 8.95, repro,
2017-04-19,-5.05, -1.35, 8.43, 2.61, 2.72, 8.97, repro,
2017-04-20,-100.05, -172.00, -436.17, 95.33, 222.77, 466.99, repro,
2017-04-21,-4.87, -0.27, -9.04, 2.71, 2.71, 9.37, repro,
2017-04-22,-3.73, -7.88, 14.91, 2.63, 2.68, 8.98, repro,
2017-04-23,-1.15, -5.79, 16.97, 2.62, 2.68, 9.14, repro,
2017-04-24,-7.98, -2.74, 12.36, 2.70, 2.80, 9.21, repro,
2017-04-25,-2.10, -3.01, -1.29, 2.62, 2.74, 9.08, repro,
2017-04-26,-9.62, 4.43, -25.83, 2.65, 2.72, 9.27, repro,
2017-04-27,4.98, -9.25, 21.94, 5.99, 8.50, 24.68, repro,
2017-04-28,1.27, -1.85, -12.55, 2.73, 2.77, 9.80, repro,
2017-04-29,-6.20, -1.04, -21.29, 2.68, 2.77, 9.46, repro,
2017-04-30,-5.32, 2.30, -21.89, 2.83, 2.91, 10.46, repro,
2017-05-01,-0.34, 3.73, -2.45, 2.75, 2.80, 9.59, repro,
2017-05-02,-0.63, 0.01, 4.67, 2.72, 2.78, 9.59, repro,
2017-05-03,-3.14, 0.11, -9.91, 2.75, 2.77, 9.83, repro,
2017-05-04,-6.44, 0.25, -3.33, 2.69, 2.73, 9.51, repro,
2017-05-05,-3.72, 6.60, -15.08, 2.79, 2.88, 9.94, repro,
2017-05-06,-5.07, 1.54, -12.63, 2.70, 2.75, 9.59, repro,
2017-05-07,-1.76, 8.52, -7.70, 2.72, 2.75, 9.52, repro,
2017-05-08,-2.46, 1.66, -6.00, 2.67, 2.70, 9.38, repro,
2017-05-09,-2.20, 0.43, -4.18, 2.70, 2.75, 9.64, repro,
2017-05-10,-3.47, -3.71, 5.24, 2.69, 2.73, 9.68, repro,
2017-05-11,-4.60, 2.33, -2.14, 2.68, 2.74, 9.24, repro,
2017-05-12,-3.53, 0.51, -8.03, 2.68, 2.73, 9.49, repro,
2017-05-13,2.05, -1.27, -1.43, 2.63, 2.70, 9.45, repro,
2017-05-14,-1.07, 3.57, 1.90, 2.63, 2.70, 9.21, repro,
2017-05-15,-2.03, -1.16, 12.93, 2.78, 2.81, 10.40, repro,
2017-05-16,-3.99, -4.64, 0.67, 2.55, 2.53, 8.65, repro,
2017-05-17,-1.36, -0.11, 2.39, 2.59, 2.59, 8.90, repro,
2017-05-18,-1.78, -6.36, -3.96, 2.57, 2.58, 8.59, repro,
2017-05-19,-7.77, -5.80, -2.54, 2.64, 2.67, 8.94, repro,
2017-05-20,-1.43, 1.01, -0.73, 2.56, 2.55, 8.66, repro,
2017-05-21,-7.96, -14.74, -5.88, 2.61, 2.62, 8.85, repro,
2017-05-22,-3.89, 0.96, -15.54, 2.56, 2.56, 8.59, repro,
2017-05-23,-2.10, 2.88, -3.05, 2.53, 2.57, 8.66, repro,
2017-05-24,0.86, 0.29, 7.96, 2.54, 2.57, 8.59, repro,
2017-05-25,-3.69, -1.07, -1.57, 2.52, 2.53, 8.57, repro,
2017-05-26,1.99, 3.50, 17.22, 2.50, 2.52, 8.53, repro,
2017-05-27,1.58, 3.27, 20.23, 2.51, 2.52, 8.47, repro,
2017-05-28,-4.43, -3.88, 11.33, 2.57, 2.59, 8.43, repro,
2017-05-29,0.57, 1.78, 13.25, 2.50, 2.53, 8.42, repro,
2017-05-30,-0.47, 2.63, -3.07, 2.55, 2.58, 8.61, repro,
2017-05-31,-1.69, 3.83, 4.69, 2.52, 2.55, 8.49, repro,
2017-06-01,-0.20, -2.76, 25.93, 2.52, 2.54, 8.50, repro,
2017-06-02,-2.64, 1.44, -6.55, 2.55, 2.56, 8.76, repro,
2017-06-03,-4.04, 2.15, -7.19, 2.52, 2.57, 8.52, repro,
2017-06-04,-4.89, -3.00, 4.90, 2.57, 2.60, 8.62, repro,
2017-06-05,-6.42, -3.14, 7.77, 2.58, 2.61, 8.61, repro,
2017-06-06,-0.08, -4.43, 3.39, 2.50, 2.53, 8.50, repro,
2017-06-07,7.69, 3.57, 14.22, 2.52, 2.56, 8.54, repro,
2017-06-08,3.52, 8.37, 4.87, 2.53, 2.58, 8.49, repro,
2017-06-09,-3.54, 1.20, 2.36, 2.54, 2.57, 8.52, repro,
2017-06-10,1.54, 6.20, 3.61, 2.53, 2.57, 8.54, repro,
2017-06-11,5.46, 4.72, 6.70, 2.58, 2.60, 8.68, repro,
2017-06-12,-4.60, -0.13, -2.40, 2.61, 2.67, 9.01, repro,
2017-06-13,-4.25, 2.57, -9.73, 2.56, 2.57, 8.58, repro,
2017-06-14,-4.75, -2.31, -8.59, 2.51, 2.56, 8.45, repro,
2017-06-15,-1.47, -4.08, -2.29, 2.57, 2.63, 8.69, repro,
2017-06-16,-7.84, -6.27, 1.06, 2.71, 2.77, 9.13, repro,
2017-06-17,-1.00, -0.19, -2.11, 2.57, 2.58, 8.54, repro,
2017-06-18,-5.12, -2.16, 7.08, 2.55, 2.57, 8.45, repro,
2017-06-19,-3.19, -3.70, -5.94, 2.56, 2.60, 8.49, repro,
2017-06-20,0.48, 3.81, 9.51, 2.54, 2.57, 8.41, repro,
2017-06-21,-0.76, -7.21, 7.00, 2.54, 2.58, 8.51, repro,
2017-06-22,-0.45, -8.97, -0.40, 2.57, 2.58, 8.82, repro,
2017-06-23,-6.09, -10.53, 4.32, 2.56, 2.57, 8.69, repro,
2017-06-24,-14.07, 6.42, -22.25, 2.59, 2.61, 8.51, repro,
2017-06-25,1.98, 10.42, -2.16, 2.55, 2.56, 8.43, repro,
2017-06-26,-5.51, 2.72, 0.87, 2.61, 2.61, 8.47, repro,
2017-06-27,2.55, -1.11, -3.53, 2.50, 2.53, 8.49, repro,
2017-06-28,3.47, -0.18, 1.43, 2.52, 2.54, 8.42, repro,
2017-06-29,-1.31, -3.10, 2.96, 2.51, 2.55, 8.46, repro,
2017-06-30,-9.57, 0.50, 6.50, 2.61, 2.61, 8.48, repro,
2017-07-01,1.27, -0.64, 7.37, 2.56, 2.59, 8.46, repro,
2017-07-02,-4.60, -5.36, 7.15, 2.55, 2.59, 8.47, repro,
2017-07-03,-0.93, 3.86, 7.06, 2.61, 2.69, 8.75, repro,
2017-07-04,-0.97, -3.85, 1.08, 2.52, 2.56, 8.48, repro,
2017-07-05,4.65, 10.19, 4.42, 2.55, 2.59, 8.54, repro,
2017-07-06,3.07, 5.32, 1.49, 2.61, 2.64, 8.60, repro,
2017-07-07,5.86, 7.35, 0.91, 2.63, 2.65, 8.56, repro,
2017-07-08,0.70, 8.15, -3.60, 2.57, 2.59, 8.43, repro,
2017-07-09,-1.15, 2.21, 5.38, 2.51, 2.52, 8.49, repro,
2017-07-10,1.07, -1.95, 9.44, 2.53, 2.55, 8.53, repro,
2017-07-11,-2.58, -2.58, 7.57, 2.53, 2.57, 8.32, repro,
2017-07-12,-4.07, -1.01, 4.39, 2.61, 2.63, 8.53, repro,
2017-07-13,4.12, 4.99, 4.46, 2.56, 2.56, 8.50, repro,
2017-07-14,1.93, 2.39, 3.34, 2.75, 2.79, 8.33, repro,
2017-07-15,-0.21, -0.85, 8.66, 2.55, 2.58, 8.37, repro,
2017-07-16,-1.51, -7.41, 6.47, 2.56, 2.57, 8.32, repro,
2017-07-17,-2.77, -0.33, -3.76, 2.57, 2.58, 8.33, repro,
2017-07-18,-10.21, -5.07, -1.17, 2.62, 2.62, 8.70, repro,
2017-07-19,7.54, 2.89, 5.42, 2.55, 2.57, 8.34, repro,
2017-07-20,4.41, 0.70, 3.18, 2.55, 2.57, 8.30, repro,
2017-07-21,4.14, 2.56, 12.62, 2.53, 2.55, 8.27, repro,
2017-07-22,-0.79, -5.01, 1.56, 2.59, 2.59, 8.34, repro,
2017-07-23,-0.96, -7.89, 8.25, 2.52, 2.53, 8.25, repro,
2017-07-24,-1.42, -1.83, 8.44, 2.53, 2.53, 8.21, repro,
2017-07-25,-1.02, 4.07, -2.21, 2.50, 2.52, 8.27, repro,
2017-07-26,4.02, -1.73, 8.81, 2.51, 2.53, 8.28, repro,
2017-07-27,0.33, -10.95, 6.91, 2.55, 2.58, 8.23, repro,
2017-07-28,-2.13, -12.30, 5.56, 2.53, 2.54, 8.25, repro,
2017-07-29,3.23, -10.38, 7.58, 2.55, 2.57, 8.28, repro,
2017-07-30,-1.35, -5.64, 2.90, 2.50, 2.51, 8.19, repro,
2017-07-31,-1.22, -5.22, 2.19, 2.52, 2.54, 8.47, repro,
2017-08-01,-3.91, -1.85, -0.52, 2.57, 2.58, 8.23, repro,
2017-08-02,-0.17, 0.34, 2.27, 2.52, 2.54, 8.27, repro,
2017-08-03,-6.80, -9.92, 6.10, 2.62, 2.62, 8.41, repro,
2017-08-04,0.59, -1.57, 10.32, 2.59, 2.59, 8.47, repro,
2017-08-05,-3.10, -6.73, 5.67, 2.57, 2.58, 8.21, repro,
2017-08-06,0.63, 0.47, 3.23, 2.50, 2.52, 8.20, repro,
2017-08-07,-3.05, -4.11, 8.69, 2.51, 2.52, 8.22, repro,
2017-08-08,4.26, -6.64, 13.30, 2.57, 2.59, 8.63, repro,
2017-08-09,5.01, -3.23, 4.72, 2.54, 2.55, 8.40, repro,
2017-08-10,-1.49, -10.36, 10.52, 2.58, 2.64, 8.41, repro,
2017-08-11,2.31, -6.49, 2.11, 2.65, 2.73, 8.65, repro,
2017-08-12,5.57, -2.12, 0.84, 2.59, 2.58, 8.23, repro,
2017-08-13,3.35, -1.99, 10.63, 2.59, 2.59, 8.32, repro,
2017-08-14,5.90, 0.24, 0.16, 2.62, 2.62, 8.43, repro,
2017-08-15,8.41, 5.82, 1.61, 2.55, 2.64, 8.51, repro,
2017-08-16,6.12, 6.80, 1.89, 2.53, 2.54, 8.25, repro,
2017-08-17,9.68, 4.45, 14.98, 2.62, 2.65, 8.70, repro,
2017-08-18,6.44, 2.05, 17.15, 2.69, 2.68, 8.87, repro,
2017-08-19,3.91, 5.40, 1.27, 2.59, 2.60, 8.62, repro,
2017-08-20,3.75, 4.57, 2.02, 2.55, 2.56, 8.20, repro,
2017-08-21,3.48, -2.64, 8.43, 2.55, 2.57, 8.45, repro,
2017-08-22,4.21, -5.03, 20.49, 2.52, 2.53, 8.20, repro,
2017-08-23,4.10, -7.51, 20.15, 2.59, 2.58, 8.28, repro,
2017-08-24,2.56, -4.69, 28.40, 2.56, 2.58, 8.47, repro,
2017-08-25,-1.08, -4.06, 19.16, 2.58, 2.58, 8.36, repro,
2017-08-26,2.45, -2.25, 17.84, 2.52, 2.52, 8.28, repro,
2017-08-27,-1.58, -1.51, 9.86, 2.50, 2.51, 8.35, repro,
2017-08-28,-0.45, -1.89, 16.71, 2.52, 2.53, 8.23, repro,
2017-08-29,1.56, -0.48, 21.24, 2.51, 2.53, 8.18, repro,
2017-08-30,2.02, 2.46, 15.16, 2.53, 2.53, 8.20, repro,
2017-08-31,-3.79, -6.23, 10.92, 2.96, 2.92, 8.53, repro,
2017-09-01,5.34, 0.38, 14.21, 2.54, 2.62, 8.43, repro,
2017-09-02,2.96, 3.42, 15.62, 2.49, 2.51, 8.20, repro,
2017-09-03,5.84, 3.78, 9.27, 2.61, 2.59, 8.56, repro,
2017-09-04,2.78, -3.98, 8.12, 2.52, 2.53, 8.11, repro,
2017-09-05,8.85, 1.43, 10.86, 2.51, 2.53, 8.19, repro,
2017-09-06,5.77, 1.59, -5.28, 2.51, 2.51, 8.30, repro,
2017-09-07,10.36, 0.72, 16.73, 2.55, 2.55, 8.54, repro,
2017-09-08,4.28, -3.47, 11.78, 2.62, 2.61, 8.40, repro,
2017-09-09,-1.57, -0.84, 4.45, 2.53, 2.54, 8.26, repro,
2017-09-10,3.58, -2.06, 4.53, 2.55, 2.56, 8.23, repro,
2017-09-11,1.05, -3.01, 7.81, 2.55, 2.55, 8.48, repro,
2017-09-12,1.95, 5.36, 5.60, 2.64, 2.64, 8.41, repro,
2017-09-13,5.29, 4.09, 13.19, 2.60, 2.60, 8.35, repro,
2017-09-14,3.88, -2.41, 11.70, 2.69, 2.66, 8.50, repro,
2017-09-15,0.49, -0.52, 10.75, 2.63, 2.64, 8.29, repro,
2017-09-16,-1.55, 0.75, 12.30, 2.63, 2.63, 8.29, repro,
2017-09-17,2.76, -0.05, 14.75, 2.64, 2.63, 8.35, repro,
2017-09-18,-3.79, -3.07, 8.86, 2.63, 2.63, 8.23, repro,
2017-09-19,-8.15, -6.76, 12.88, 2.73, 2.70, 8.38, repro,
2017-09-20,-7.55, -0.60, -9.19, 2.69, 2.67, 8.42, repro,
2017-09-21,-0.71, -1.62, -4.84, 2.61, 2.61, 8.31, repro,
2017-09-22,-1.38, -5.38, 6.98, 2.66, 2.65, 8.56, repro,
2017-09-23,-3.06, -1.92, 3.43, 2.61, 2.60, 8.35, repro,
2017-09-24,-7.17, -6.49, 5.24, 2.60, 2.60, 8.26, repro,
2017-09-25,2.94, 3.18, 10.22, 2.62, 2.62, 8.37, repro,
2017-09-26,-1.58, 1.39, 8.50, 2.57, 2.57, 8.36, repro,
2017-09-27,2.54, 2.20, 9.79, 2.64, 2.64, 8.39, repro,
2017-09-28,3.21, 0.92, 11.19, 2.67, 2.65, 8.73, repro,
2017-09-29,2.25, 0.39, 9.43, 2.59, 2.58, 8.45, repro,
2017-09-30,-1.06, 0.92, -0.39, 2.62, 2.61, 8.31, repro,
2017-10-01,0.43, 6.68, -2.24, 2.65, 2.64, 8.35, repro,
2017-10-02,-0.96, 8.28, 7.35, 2.60, 2.60, 8.42, repro,
2017-10-03,0.11, 4.61, 0.38, 2.58, 2.59, 8.41, repro,
2017-10-04,5.29, 6.85, 5.85, 2.66, 2.63, 8.51, repro,
2017-10-05,9.13, 13.00, 11.30, 2.60, 2.62, 8.38, repro,
2017-10-06,2.83, 10.56, 4.95, 2.66, 2.64, 8.43, repro,